Location: Burgerwiesen
(48.6500°N, 15.6167°E)
Time: 08:03:14
(UTC+00:00)

SJ-11-01 - Pass Details

Date: 09 April 2020
Orbit: 683 x 701 km, 98.0° (Epoch: 03 June)

Event Time Altitude Azimuth Distance (km) Brightness Sun altitude
Rises 18:07:32 0° 166° (SSE) 3,058 7.3 -5.1°
Reaches altitude 10° 18:09:46 10° 166° (SSE) 2,148 6.5 -5.5°
Maximum altitude 18:14:29 86° 256° (WSW) 707 4.4 -6.2°
Drops below altitude 10° 18:19:16 10° 345° (NNW) 2,175 7.4 -6.9°
Sets 18:21:32 0° 346° (NNW) 3,099 8.2 -7.3°
